GW2783 Weather Reports


Display with metric or nautical units.
time (UTC)temp
F
wind
direction
speed
MPH
gust
MPH
rain 1hr
in
rain 24hr
in
rain mn
in
humidity
%
barometer
mb
20260508125514 53 108 1.0 6.0 0.00 0.00 0.00 63 1014.3
20260508125012 52 0 0.0 4.0 0.00 0.00 0.00 64 1014.4
20260508124535 52 212 1.0 4.0 0.00 0.00 0.00 63 1014.2
20260508124012 52 0 0.0 4.0 0.00 0.00 0.00 64 1014.2
20260508123513 52 210 1.0 4.0 0.00 0.00 0.00 63 1014.0
20260508123043 52 0 0.0 3.0 0.00 0.00 0.00 63 1014.2
20260508122510 52 0 0.0 4.0 0.00 0.00 0.00 63 1014.1
20260508122010 52 0 1.0 4.0 0.00 0.00 0.00 63 1014.1
20260508121532 51 0 0.0 3.0 0.00 0.00 0.00 64 1014.1
20260508121010 52 0 0.0 4.0 0.00 0.00 0.00 64 1014.1
20260508120510 51 0 0.0 5.0 0.00 0.00 0.00 65 1014.3
20260508120035 51 203 1.0 5.0 0.00 0.00 0.00 66 1014.3
20260508115511 50 0 1.0 4.0 0.00 0.00 0.00 66 1014.1
20260508115011 50 222 0.0 4.0 0.00 0.00 0.00 68 1014.3
20260508114528 49 176 1.0 4.0 0.00 0.00 0.00 69 1014.1
20260508114010 48 241 0.0 6.0 0.00 0.00 0.00 72 1014.1
20260508113512 47 157 1.0 6.0 0.00 0.00 0.00 72 1014.0
20260508113028 47 169 1.0 6.0 0.00 0.00 0.00 74 1013.9
20260508112511 46 177 0.0 2.0 0.00 0.00 0.00 78 1014.0
20260508112012 45 157 0.0 1.0 0.00 0.00 0.00 80 1013.9
20260508111536 44 152 0.0 0.0 0.00 0.00 0.00 83 1013.9
20260508111013 43 0 0.0 0.0 0.00 0.00 0.00 83 1013.9
20260508110510 42 0 0.0 0.0 0.00 0.00 0.00 83 1013.9
20260508110029 42 0 0.0 0.0 0.00 0.00 0.00 83 1013.7
20260508105511 42 0 0.0 0.0 0.00 0.00 0.00 83 1013.7
20260508105011 42 0 0.0 0.0 0.00 0.00 0.00 83 1013.7
20260508104530 42 0 0.0 0.0 0.00 0.00 0.00 84 1013.6
20260508104012 41 0 0.0 0.0 0.00 0.00 0.00 84 1013.6
20260508103512 41 0 0.0 0.0 0.00 0.00 0.00 84 1013.6
20260508103032 41 0 0.0 0.0 0.00 0.00 0.00 85 1013.6
20260508102511 41 0 0.0 0.0 0.00 0.00 0.00 85 1013.5
20260508102010 41 0 0.0 0.0 0.00 0.00 0.00 84 1013.4
20260508101530 41 0 0.0 0.0 0.00 0.00 0.00 84 1013.5
20260508101010 41 0 0.0 0.0 0.00 0.00 0.00 83 1013.5
20260508100511 41 0 0.0 0.0 0.00 0.00 0.00 83 1013.4
20260508100027 41 0 0.0 0.0 0.00 0.00 0.00 83 1013.5
20260508095509 41 0 0.0 1.0 0.00 0.00 0.00 83 1013.5
20260508095012 41 0 0.0 1.0 0.00 0.00 0.00 83 1013.5
20260508094531 41 0 0.0 1.0 0.00 0.00 0.00 83 1013.5
20260508094009 42 0 0.0 0.0 0.00 0.00 0.00 82 1013.6
20260508093511 42 0 0.0 0.0 0.00 0.00 0.00 82 1013.5
20260508093031 42 0 0.0 0.0 0.00 0.00 0.00 82 1013.6
20260508092509 42 0 0.0 0.0 0.00 0.00 0.00 82 1013.5
20260508092010 42 0 0.0 0.0 0.00 0.00 0.00 81 1013.7
20260508091528 42 0 0.0 0.0 0.00 0.00 0.00 81 1013.7
20260508091012 42 0 0.0 0.0 0.00 0.00 0.00 82 1013.7
20260508090509 42 0 0.0 0.0 0.00 0.00 0.00 81 1013.7
20260508090045 42 0 0.0 0.0 0.00 0.00 0.00 81 1013.8
20260508085509 43 0 0.0 1.0 0.00 0.00 0.00 81 1013.7
20260508085009 43 0 0.0 1.0 0.00 0.00 0.00 81 1013.8
20260508084527 43 0 0.0 1.0 0.00 0.00 0.00 80 1013.7
20260508084012 43 0 0.0 2.0 0.00 0.00 0.00 80 1013.7
20260508083509 43 0 0.0 2.0 0.00 0.00 0.00 81 1013.7
20260508083030 43 0 0.0 2.0 0.00 0.00 0.00 81 1013.7
20260508082511 43 0 0.0 0.0 0.00 0.00 0.00 80 1013.7
20260508082011 43 0 0.0 0.0 0.00 0.00 0.00 80 1013.7
20260508081532 43 0 0.0 0.0 0.00 0.00 0.00 79 1013.7
20260508081009 44 0 0.0 0.0 0.00 0.00 0.00 78 1013.7
20260508080517 44 0 0.0 0.0 0.00 0.00 0.00 77 1013.7
20260508080030 45 0 0.0 0.0 0.00 0.00 0.00 77 1013.8
20260508075511 45 0 0.0 0.0 0.00 0.00 0.00 76 1013.7
20260508075011 45 0 0.0 0.0 0.00 0.00 0.00 75 1013.8
20260508074528 46 0 0.0 0.0 0.00 0.00 0.00 74 1013.8
20260508074011 46 0 0.0 0.0 0.00 0.00 0.00 73 1013.8
20260508073511 47 0 0.0 0.0 0.00 0.00 0.00 73 1013.9
20260508073030 47 0 0.0 1.0 0.00 0.00 0.00 72 1013.9
20260508072512 47 0 0.0 2.0 0.00 0.00 0.00 72 1013.9
20260508072013 48 0 0.0 2.0 0.00 0.00 0.00 71 1014.0
20260508071529 48 290 0.0 2.0 0.00 0.00 0.00 70 1014.0
20260508071013 48 143 0.0 1.0 0.00 0.00 0.00 71 1014.1
20260508070513 48 144 0.0 1.0 0.00 0.00 0.00 71 1014.1
20260508070030 48 0 0.0 1.0 0.00 0.00 0.00 70 1014.2
20260508065509 48 162 0.0 1.0 0.00 0.00 0.00 71 1014.3
20260508065013 48 131 0.0 1.0 0.00 0.00 0.00 70 1014.3
20260508064532 48 0 0.0 0.0 0.00 0.00 0.00 70 1014.4
20260508064010 48 0 0.0 0.0 0.00 0.00 0.00 70 1014.3
20260508063511 48 0 0.0 0.0 0.00 0.00 0.00 70 1014.4
20260508063035 48 0 0.0 0.0 0.00 0.00 0.00 70 1014.4
20260508062511 48 0 0.0 0.0 0.00 0.00 0.00 69 1014.4
20260508062010 48 0 0.0 0.0 0.00 0.00 0.00 69 1014.4
20260508061536 48 0 0.0 0.0 0.00 0.00 0.00 69 1014.3
20260508061014 48 0 0.0 0.0 0.00 0.00 0.00 67 1014.2
20260508060509 48 0 0.0 0.0 0.00 0.00 0.00 68 1014.3
20260508060032 48 0 0.0 2.0 0.00 0.00 0.00 68 1014.1
20260508055510 48 0 0.0 2.0 0.00 0.00 0.00 68 1014.0
20260508055012 48 211 0.0 2.0 0.00 0.00 0.00 68 1014.0
20260508054534 48 195 0.0 2.0 0.00 0.00 0.00 69 1013.9
20260508054013 48 110 0.0 2.0 0.00 0.00 0.00 68 1013.9
20260508053510 48 0 0.0 2.0 0.00 0.00 0.00 69 1014.1
20260508053033 48 213 0.0 2.0 0.00 0.00 0.00 69 1014.0
20260508052511 48 0 0.0 2.0 0.00 0.00 0.00 69 1014.1
20260508052012 48 206 0.0 2.0 0.00 0.00 0.00 69 1014.1
20260508051529 48 0 0.0 1.0 0.00 0.00 0.00 68 1014.0
20260508051016 48 0 0.0 1.0 0.00 0.00 0.00 69 1014.0
20260508050510 48 0 0.0 0.0 0.00 0.00 0.00 69 1014.1
20260508050030 47 0 0.0 0.0 0.00 0.00 0.00 71 1014.1
20260508045512 47 0 0.0 0.0 0.00 0.00 0.00 72 1014.1
20260508045011 47 0 0.0 0.0 0.00 0.00 0.00 72 1014.2
20260508044528 47 0 0.0 0.0 0.00 0.00 0.00 72 1014.2
20260508044012 47 0 0.0 0.0 0.00 0.00 0.00 72 1014.3
20260508043509 47 0 0.0 0.0 0.00 0.00 0.00 72 1014.3
20260508043029 46 0 0.0 0.0 0.00 0.00 0.00 73 1014.3
20260508042511 46 0 0.0 0.0 0.00 0.00 0.00 74 1014.3
20260508042012 46 0 0.0 0.0 0.00 0.00 0.00 73 1014.3
20260508041530 46 0 0.0 0.0 0.00 0.00 0.00 73 1014.3
20260508041012 46 0 0.0 0.0 0.00 0.00 0.00 73 1014.2
20260508040514 46 0 0.0 0.0 0.00 0.00 0.00 72 1014.1
20260508040029 46 0 0.0 0.0 0.00 0.00 0.00 71 1014.0
20260508035512 46 0 0.0 0.0 0.00 0.00 0.00 70 1013.9
20260508035012 47 0 0.0 0.0 0.00 0.00 0.00 70 1014.0
20260508034540 47 0 0.0 0.0 0.00 0.00 0.00 71 1014.1
20260508034009 47 0 0.0 0.0 0.00 0.00 0.00 71 1014.1
20260508033509 47 0 0.0 0.0 0.00 0.00 0.00 70 1014.0
20260508033030 46 0 0.0 0.0 0.00 0.00 0.00 71 1014.0
20260508032510 46 0 0.0 0.0 0.00 0.00 0.00 71 1014.0
20260508032011 46 0 0.0 0.0 0.00 0.00 0.00 71 1014.0
20260508031534 45 0 0.0 0.0 0.00 0.00 0.00 70 1014.1
20260508031011 46 0 0.0 0.0 0.00 0.00 0.00 70 1014.1
20260508030511 46 0 0.0 0.0 0.00 0.00 0.00 70 1014.2
20260508030030 45 0 0.0 0.0 0.00 0.00 0.00 68 1014.2
20260508025511 46 0 0.0 0.0 0.00 0.00 0.00 67 1014.2
20260508025012 46 0 0.0 0.0 0.00 0.00 0.00 66 1014.1
20260508024552 47 0 0.0 0.0 0.00 0.00 0.00 66 1014.1
20260508024012 47 0 0.0 0.0 0.00 0.00 0.00 65 1014.1
20260508023512 47 0 0.0 0.0 0.00 0.00 0.00 65 1014.1
20260508023030 47 0 0.0 0.0 0.00 0.00 0.00 63 1014.1
20260508022514 48 0 0.0 0.0 0.00 0.00 0.00 62 1014.0
20260508022009 48 0 0.0 0.0 0.00 0.00 0.00 60 1014.0
20260508021528 48 0 0.0 0.0 0.00 0.00 0.00 62 1014.0
20260508021010 48 0 0.0 0.0 0.00 0.00 0.00 61 1014.0
20260508020511 48 0 0.0 0.0 0.00 0.00 0.00 60 1014.1
20260508020027 48 0 0.0 0.0 0.00 0.00 0.00 59 1014.0
20260508015509 49 0 0.0 0.0 0.00 0.00 0.00 58 1014.0
20260508015012 49 0 0.0 0.0 0.00 0.00 0.00 56 1014.0
20260508014527 50 0 0.0 0.0 0.00 0.00 0.00 55 1014.0
20260508014011 50 0 0.0 0.0 0.00 0.00 0.00 54 1014.0
20260508013511 51 0 0.0 0.0 0.00 0.00 0.00 53 1013.9
20260508013033 51 0 0.0 0.0 0.00 0.00 0.00 51 1014.0
20260508012512 52 0 0.0 0.0 0.00 0.00 0.00 50 1013.9
20260508012012 52 0 0.0 0.0 0.00 0.00 0.00 48 1013.8
20260508011532 53 0 0.0 1.0 0.00 0.00 0.00 48 1013.8
20260508011008 53 0 0.0 1.0 0.00 0.00 0.00 47 1013.7
20260508010511 53 238 0.0 1.0 0.00 0.00 0.00 46 1013.7
20260508010028 54 0 0.0 3.0 0.00 0.00 0.00 45 1013.7
20260508005509 54 0 0.0 3.0 0.00 0.00 0.00 46 1013.7
20260508005010 54 0 0.0 3.0 0.00 0.00 0.00 44 1013.6
20260508004541 54 285 0.0 2.0 0.00 0.00 0.00 44 1013.6
20260508004013 55 255 0.0 3.0 0.00 0.00 0.00 43 1013.5
20260508003511 55 259 0.0 3.0 0.00 0.00 0.00 43 1013.6
20260508003029 55 290 0.0 3.0 0.00 0.00 0.00 43 1013.6
20260508002509 55 0 0.0 4.0 0.00 0.00 0.00 42 1013.6
20260508002010 56 275 0.0 4.0 0.00 0.00 0.00 41 1013.4
20260508001538 56 293 0.0 3.0 0.00 0.00 0.00 41 1013.4
20260508001008 57 286 1.0 3.0 0.00 0.00 0.00 38 1013.4
20260508000509 57 357 1.0 3.0 0.00 0.00 0.00 39 1013.4
20260508000027 57 238 1.0 5.0 0.00 0.00 0.00 38 1013.2
20260507235510 57 277 2.0 5.0 0.00 0.00 0.00 38 1013.2
20260507235009 58 293 2.0 5.0 0.00 0.00 0.00 38 1013.2
20260507234534 58 279 1.0 4.0 0.00 0.00 0.00 38 1013.3
20260507234012 58 250 1.0 4.0 0.00 0.00 0.00 37 1013.2
20260507233517 58 318 1.0 6.0 0.00 0.00 0.00 36 1013.2
20260507233029 58 269 1.0 7.0 0.00 0.00 0.00 38 1013.3
20260507232512 58 283 2.0 8.0 0.00 0.00 0.00 36 1013.1
20260507232015 58 301 4.0 8.0 0.00 0.00 0.00 36 1013.1
20260507231528 58 264 2.0 7.0 0.00 0.00 0.00 37 1013.0
20260507231012 58 15 3.0 7.0 0.00 0.00 0.00 35 1013.0
20260507230510 58 288 3.0 10.0 0.00 0.00 0.00 35 1013.1
20260507230030 59 312 5.0 10.0 0.00 0.00 0.00 35 1013.0
20260507225511 59 43 3.0 8.0 0.00 0.00 0.00 36 1013.0
20260507225010 59 283 1.0 10.0 0.00 0.00 0.00 36 1013.1
20260507224532 59 290 2.0 10.0 0.00 0.00 0.00 35 1013.1
20260507224010 59 22 3.0 10.0 0.00 0.00 0.00 35 1013.2
20260507223512 59 309 4.0 8.0 0.00 0.00 0.00 36 1013.2
20260507223030 59 263 2.0 7.0 0.00 0.00 0.00 36 1013.2
20260507222514 58 174 3.0 12.0 0.00 0.00 0.00 37 1013.3
20260507222010 58 260 5.0 12.0 0.00 0.00 0.00 36 1013.3
20260507221536 59 283 4.0 12.0 0.00 0.00 0.00 36 1013.3
20260507221013 59 37 6.0 12.0 0.00 0.00 0.00 35 1013.3
20260507220514 60 220 2.0 8.0 0.00 0.00 0.00 34 1013.4
20260507220031 59 278 3.0 12.0 0.00 0.00 0.00 34 1013.3
20260507215513 59 252 4.0 14.0 0.00 0.00 0.00 34 1013.3
20260507215013 60 304 6.0 14.0 0.00 0.00 0.00 33 1013.2
20260507214535 59 275 5.0 14.0 0.00 0.00 0.00 33 1013.1
20260507214009 59 274 7.0 12.0 0.00 0.00 0.00 33 1013.3
20260507213516 59 238 4.0 14.0 0.00 0.00 0.00 34 1013.2
20260507213031 59 274 8.0 14.0 0.00 0.00 0.00 35 1013.2
20260507212512 59 302 3.0 13.0 0.00 0.00 0.00 38 1013.1
20260507212017 59 354 6.0 14.0 0.00 0.00 0.00 37 1013.2
20260507211528 60 262 5.0 14.0 0.00 0.00 0.00 36 1013.0
20260507211013 60 276 3.0 11.0 0.00 0.00 0.00 37 1013.0
20260507210513 61 275 3.0 11.0 0.00 0.00 0.00 36 1013.1
20260507210028 61 274 3.0 10.0 0.00 0.00 0.00 34 1013.1
20260507205513 60 233 4.0 10.0 0.00 0.00 0.00 38 1012.9
20260507205009 59 111 5.0 11.0 0.00 0.00 0.00 39 1012.9
20260507204528 59 317 5.0 11.0 0.00 0.00 0.00 36 1012.8
20260507204010 60 308 3.0 12.0 0.00 0.00 0.00 38 1012.8
20260507203510 60 268 3.0 12.0 0.00 0.00 0.00 38 1012.8
20260507203042 59 256 5.0 19.0 0.00 0.00 0.00 36 1012.8
20260507202513 58 62 4.0 19.0 0.00 0.00 0.00 37 1012.6
20260507202012 59 290 6.0 15.0 0.00 0.00 0.00 38 1012.8
20260507201533 58 2 4.0 10.0 0.00 0.00 0.00 39 1012.7
20260507201013 59 25 3.0 11.0 0.00 0.00 0.00 38 1013.0
20260507200514 59 7 3.0 13.0 0.00 0.00 0.00 38 1013.0
20260507200030 59 236 5.0 13.0 0.00 0.00 0.00 37 1012.9
20260507195542 59 238 3.0 13.0 0.00 0.00 0.00 36 1012.8
20260507195012 58 281 6.0 15.0 0.00 0.00 0.00 37 1013.0
20260507194530 58 287 3.0 15.0 0.00 0.00 0.00 38 1013.1
20260507194016 59 271 4.0 18.0 0.00 0.00 0.00 35 1013.3
20260507193510 59 246 6.0 18.0 0.00 0.00 0.00 37 1013.2
20260507193037 58 245 4.0 16.0 0.00 0.00 0.00 38 1013.2
20260507192513 58 233 4.0 16.0 0.00 0.00 0.00 40 1013.1
20260507192014 57 125 5.0 16.0 0.00 0.00 0.00 40 1013.0
20260507191535 58 275 5.0 14.0 0.00 0.00 0.00 39 1013.2
20260507191015 58 276 6.0 14.0 0.00 0.00 0.00 39 1013.2
20260507190509 58 283 3.0 11.0 0.00 0.00 0.00 41 1013.3
20260507190030 58 285 3.0 11.0 0.00 0.00 0.00 38 1013.2
20260507185510 58 291 4.0 14.0 0.00 0.00 0.00 39 1013.3
20260507185009 58 329 4.0 14.0 0.00 0.00 0.00 40 1013.2
20260507184530 58 293 4.0 14.0 0.00 0.00 0.00 42 1013.3
20260507184012 57 243 5.0 12.0 0.00 0.00 0.00 43 1013.1
20260507183511 58 284 5.0 12.0 0.00 0.00 0.00 43 1013.3
20260507183030 58 243 3.0 13.0 0.00 0.00 0.00 44 1013.4
20260507182510 57 221 3.0 17.0 0.00 0.00 0.00 46 1013.3
20260507182009 57 231 8.0 17.0 0.00 0.00 0.00 42 1013.4
20260507181530 57 245 5.0 13.0 0.00 0.00 0.00 42 1013.3
20260507181013 57 288 6.0 12.0 0.00 0.00 0.00 43 1013.4
20260507180512 57 293 6.0 12.0 0.00 0.00 0.00 41 1013.3
20260507180037 58 213 4.0 12.0 0.00 0.00 0.00 43 1013.4
20260507175511 57 312 4.0 12.0 0.00 0.00 0.00 43 1013.5
20260507175014 56 341 3.0 12.0 0.00 0.00 0.00 43 1013.5
20260507174538 56 301 5.0 12.0 0.00 0.00 0.00 43 1013.7
20260507174015 56 277 5.0 12.0 0.00 0.00 0.00 43 1013.6
20260507173516 56 288 6.0 12.0 0.00 0.00 0.00 42 1013.8
20260507173052 57 259 3.0 10.0 0.00 0.00 0.00 41 1013.8
20260507172512 57 277 4.0 14.0 0.00 0.00 0.00 41 1013.8
20260507172012 57 273 4.0 14.0 0.00 0.00 0.00 41 1013.9
20260507171529 56 235 4.0 14.0 0.00 0.00 0.00 42 1014.1
20260507171009 56 299 4.0 13.0 0.00 0.00 0.00 42 1014.2
20260507170512 56 263 7.0 11.0 0.00 0.00 0.00 40 1014.3
20260507170032 56 287 2.0 11.0 0.00 0.00 0.00 40 1014.2
20260507165516 56 239 6.0 11.0 0.00 0.00 0.00 40 1014.3
20260507165011 56 305 3.0 10.0 0.00 0.00 0.00 41 1014.3
20260507164534 56 189 3.0 10.0 0.00 0.00 0.00 39 1014.2
20260507164013 56 245 1.0 10.0 0.00 0.00 0.00 43 1014.3
20260507163514 56 248 5.0 11.0 0.00 0.00 0.00 37 1014.3
20260507163032 56 304 5.0 11.0 0.00 0.00 0.00 40 1014.2
20260507162517 56 134 2.0 9.0 0.00 0.00 0.00 42 1014.3
20260507162012 55 256 4.0 9.0 0.00 0.00 0.00 45 1014.2
20260507161540 55 243 5.0 11.0 0.00 0.00 0.00 43 1014.4
20260507161009 55 304 3.0 11.0 0.00 0.00 0.00 45 1014.2
20260507160510 54 203 5.0 10.0 0.00 0.00 0.00 44 1014.4
20260507160028 55 248 3.0 10.0 0.00 0.00 0.00 46 1014.3
20260507155515 56 310 2.0 10.0 0.00 0.00 0.00 46 1014.2
20260507155014 55 245 3.0 14.0 0.00 0.00 0.00 46 1014.2
20260507154528 55 153 2.0 14.0 0.00 0.00 0.00 46 1014.2
20260507154012 54 284 3.0 13.0 0.00 0.00 0.00 46 1014.1
20260507153512 55 316 5.0 13.0 0.00 0.00 0.00 45 1014.1
20260507153032 55 289 2.0 9.0 0.00 0.00 0.00 44 1014.1
20260507152516 54 268 4.0 9.0 0.00 0.00 0.00 44 1014.0
20260507152022 54 276 3.0 10.0 0.00 0.00 0.00 46 1014.0
20260507151530 54 266 4.0 10.0 0.00 0.00 0.00 45 1014.0
20260507151011 54 301 4.0 10.0 0.00 0.00 0.00 46 1013.8
20260507150518 55 323 1.0 6.0 0.00 0.00 0.00 46 1013.9
20260507150037 55 319 3.0 8.0 0.00 0.00 0.00 44 1014.0
20260507145510 54 0 0.0 8.0 0.00 0.00 0.00 49 1014.0
20260507145016 54 259 3.0 7.0 0.00 0.00 0.00 45 1014.2
20260507144527 54 293 1.0 9.0 0.00 0.00 0.00 46 1014.1
20260507144011 53 304 2.0 11.0 0.00 0.00 0.00 48 1014.1
20260507143512 53 287 5.0 11.0 0.00 0.00 0.00 48 1014.1
20260507143033 52 225 3.0 8.0 0.00 0.00 0.00 48 1014.0
20260507142509 52 286 3.0 8.0 0.00 0.00 0.00 50 1014.1
20260507142018 52 303 3.0 11.0 0.00 0.00 0.00 47 1014.1
20260507141545 52 276 5.0 11.0 0.00 0.00 0.00 48 1014.3
20260507141012 52 292 3.0 9.0 0.00 0.00 0.00 49 1014.2
20260507140512 51 251 3.0 9.0 0.00 0.00 0.00 48 1014.1
20260507140031 51 311 5.0 9.0 0.00 0.00 0.00 48 1014.2
20260507135512 52 274 4.0 8.0 0.00 0.00 0.00 49 1014.2
20260507135012 52 131 1.0 7.0 0.00 0.00 0.00 52 1014.2
20260507134528 51 319 2.0 8.0 0.00 0.00 0.00 52 1014.3
20260507134011 51 294 2.0 8.0 0.00 0.00 0.00 52 1014.2
20260507133511 50 276 2.0 8.0 0.00 0.00 0.00 53 1014.2
20260507133043 50 283 4.0 8.0 0.00 0.00 0.00 53 1014.4
20260507132516 50 297 3.0 8.0 0.00 0.00 0.00 55 1014.4
20260507132012 50 307 3.0 8.0 0.00 0.00 0.00 56 1014.4
20260507131530 50 306 4.0 8.0 0.00 0.00 0.00 56 1014.4
20260507131013 50 302 2.0 7.0 0.00 0.00 0.00 57 1014.5
20260507130512 50 293 2.0 5.0 0.00 0.00 0.00 58 1014.6
20260507130031 50 248 0.0 5.0 0.00 0.00 0.00 62 1014.6